EW2826 Weather Reports


Display with metric or nautical units.
time (UTC)temp
F
wind
direction
speed
MPH
gust
MPH
rain 1hr
in
rain 24hr
in
rain mn
in
humidity
%
barometer
mb
20260506001023 58 83 3.0 8.0 0.00 0.00 0.00 68 1029.7
20260506000002 58 82 8.0 14.0 0.00 0.00 0.00 68 1029.5
20260505235023 57 103 6.0 12.0 0.00 0.00 0.00 69 1029.4
20260505234002 57 53 5.0 9.0 0.00 0.00 0.00 70 1029.3
20260505233002 56 101 3.0 7.0 0.00 0.00 0.00 72 1029.2
20260505232002 56 189 3.0 6.0 0.00 0.00 0.00 72 1029.1
20260505231002 55 47 2.0 6.0 0.00 0.00 0.00 72 1029.1
20260505230002 55 252 3.0 7.0 0.00 0.00 0.00 73 1028.8
20260505225023 55 176 2.0 3.0 0.00 0.00 0.00 72 1028.9
20260505224002 55 113 2.0 6.0 0.00 0.00 0.00 72 1028.7
20260505223023 55 58 2.0 3.0 0.00 0.00 0.00 72 1028.5
20260505222002 55 91 2.0 6.0 0.00 0.00 0.00 72 1028.4
20260505221023 55 0 2.0 5.0 0.00 0.00 0.00 73 1028.3
20260505220002 55 179 2.0 6.0 0.00 0.00 0.00 72 1028.2
20260505215002 55 221 3.0 6.0 0.00 0.00 0.00 72 1028.1
20260505214002 55 37 3.0 7.0 0.00 0.00 0.00 73 1028.0
20260505213002 54 36 2.0 3.0 0.00 0.00 0.00 75 1027.9
20260505212002 54 22 1.0 2.0 0.00 0.00 0.00 76 1027.9
20260505211023 54 229 1.0 2.0 0.00 0.00 0.00 76 1027.9
20260505210002 54 207 1.0 6.0 0.00 0.00 0.00 75 1027.8
20260505205002 54 2 2.0 5.0 0.00 0.00 0.00 73 1027.7
20260505204002 55 226 2.0 5.0 0.00 0.00 0.00 72 1027.7
20260505202023 56 234 3.0 6.0 0.00 0.00 0.00 69 1027.5
20260505201002 56 214 2.0 6.0 0.00 0.00 0.00 70 1027.5
20260505200002 56 99 5.0 8.0 0.00 0.00 0.00 69 1027.4
20260505195023 57 130 5.0 9.0 0.00 0.00 0.00 69 1027.4
20260505194023 57 130 3.0 10.0 0.00 0.00 0.00 68 1027.4
20260505193002 57 175 3.0 6.0 0.00 0.00 0.00 68 1027.4
20260505192002 57 210 2.0 9.0 0.00 0.00 0.00 67 1027.4
20260505191023 57 162 2.0 5.0 0.00 0.00 0.00 66 1027.3
20260505185002 58 129 3.0 7.0 0.00 0.00 0.00 65 1027.3
20260505184023 57 89 5.0 9.0 0.00 0.00 0.00 66 1027.3
20260505183002 57 33 3.0 9.0 0.00 0.00 0.00 65 1027.5
20260505182002 58 231 3.0 7.0 0.00 0.00 0.00 63 1027.4
20260505181023 59 126 3.0 7.0 0.00 0.00 0.00 62 1027.3
20260505180002 59 167 2.0 3.0 0.00 0.00 0.00 61 1027.2
20260505175002 59 106 2.0 5.0 0.00 0.00 0.00 60 1027.3
20260505174023 59 93 5.0 8.0 0.00 0.00 0.00 60 1027.3
20260505173002 59 90 5.0 8.0 0.00 0.00 0.00 60 1027.2
20260505172022 60 91 5.0 9.0 0.00 0.00 0.00 59 1027.3
20260505171003 60 85 4.0 8.0 0.00 0.00 0.00 58 1027.2
20260505170001 61 115 2.0 5.0 0.00 0.00 0.00 57 1027.1
20260505165002 61 96 6.0 10.0 0.00 0.00 0.00 57 1027.1
20260505164002 61 114 4.0 13.0 0.00 0.00 0.00 57 1027.1
20260505163002 61 107 2.0 5.0 0.00 0.00 0.00 57 1027.0
20260505162002 61 94 4.0 8.0 0.00 0.00 0.00 57 1027.0
20260505161002 61 109 5.0 9.0 0.00 0.00 0.00 57 1026.9
20260505151002 60 117 3.0 8.0 0.00 0.00 0.00 61 1027.1
20260505125002 58 162 0.0 0.0 0.00 0.00 0.00 71 1026.9
20260505124002 58 226 1.0 2.0 0.00 0.00 0.00 71 1026.9
20260505123001 59 207 1.0 3.0 0.00 0.00 0.00 70 1026.9
20260505122002 59 204 1.0 2.0 0.00 0.00 0.00 70 1026.8
20260505121002 59 191 1.0 2.0 0.00 0.00 0.00 69 1026.8
20260505120003 60 197 1.0 1.0 0.00 0.00 0.00 69 1026.8
20260505115002 60 203 1.0 1.0 0.00 0.00 0.00 69 1026.7
20260505114002 60 188 1.0 1.0 0.00 0.00 0.00 68 1026.6
20260505113003 60 185 1.0 1.0 0.00 0.00 0.00 68 1026.6
20260505112002 61 214 1.0 1.0 0.00 0.00 0.00 68 1026.6
20260505111002 61 226 0.0 0.0 0.00 0.00 0.00 67 1026.6
20260505102023 64 193 1.0 2.0 0.00 0.00 0.00 63 1026.0
20260505101023 65 185 1.0 2.0 0.00 0.00 0.00 62 1025.9
20260505100003 66 184 1.0 3.0 0.00 0.00 0.00 61 1025.8
20260505095002 66 198 1.0 2.0 0.00 0.00 0.00 60 1025.7
20260505094002 67 197 1.0 3.0 0.00 0.00 0.00 58 1025.6
20260505093002 68 197 1.0 2.0 0.00 0.00 0.00 57 1025.6
20260505092023 68 198 2.0 8.0 0.00 0.00 0.00 56 1025.5
20260505091002 69 200 1.0 2.0 0.00 0.00 0.00 55 1025.4
20260505090023 69 185 1.0 2.0 0.00 0.00 0.00 54 1025.4
20260505085002 70 191 1.0 2.0 0.00 0.00 0.00 53 1025.3
20260505084002 71 195 2.0 6.0 0.00 0.00 0.00 53 1025.2
20260505083002 71 199 1.0 2.0 0.00 0.00 0.00 48 1025.2
20260505082002 72 195 1.0 3.0 0.00 0.00 0.00 47 1025.2
20260505081002 73 206 1.0 3.0 0.00 0.00 0.00 45 1025.2
20260505080002 74 166 1.0 2.0 0.00 0.00 0.00 45 1025.1
20260505075002 75 181 1.0 3.0 0.00 0.00 0.00 44 1025.1
20260505074002 76 202 1.0 2.0 0.00 0.00 0.00 42 1025.1
20260505073023 76 199 1.0 1.0 0.00 0.00 0.00 42 1025.0
20260505072007 76 1 2.0 2.0 0.00 0.00 0.00 41 1025.1
20260505071003 75 64 2.0 6.0 0.00 0.00 0.00 42 1025.1
20260505070024 75 63 3.0 8.0 0.00 0.00 0.00 41 1025.0
20260505065002 76 208 2.0 3.0 0.00 0.00 0.00 41 1025.1
20260505063002 75 166 2.0 3.0 0.00 0.00 0.00 41 1025.1
20260505062002 76 56 1.0 5.0 0.00 0.00 0.00 41 1025.1
20260505061023 75 208 1.0 2.0 0.00 0.00 0.00 41 1025.1
20260505060024 75 172 1.0 2.0 0.00 0.00 0.00 42 1025.2
20260505055003 75 188 2.0 5.0 0.00 0.00 0.00 40 1025.2
20260505054002 76 187 1.0 2.0 0.00 0.00 0.00 40 1025.2
20260505053002 75 10 2.0 5.0 0.00 0.00 0.00 41 1025.3
20260505052002 75 180 2.0 3.0 0.00 0.00 0.00 42 1025.4
20260505051002 75 218 1.0 2.0 0.00 0.00 0.00 42 1025.6
20260505041001 71 65 3.0 6.0 0.00 0.00 0.00 47 1026.5
20260505040002 71 49 1.0 5.0 0.00 0.00 0.00 48 1026.7
20260505035002 70 128 2.0 3.0 0.00 0.00 0.00 49 1026.8
20260505034003 70 32 3.0 6.0 0.00 0.00 0.00 49 1026.9
20260505033003 69 34 1.0 2.0 0.00 0.00 0.00 49 1027.1
20260505031002 69 13 3.0 7.0 0.00 0.00 0.00 50 1027.2
20260505030002 69 32 3.0 6.0 0.00 0.00 0.00 49 1027.2
20260505025002 69 70 4.0 6.0 0.00 0.00 0.00 50 1027.2
20260505024003 68 64 5.0 8.0 0.00 0.00 0.00 50 1027.3
20260505023003 67 10 3.0 6.0 0.00 0.00 0.00 51 1027.3
20260505022002 68 21 3.0 6.0 0.00 0.00 0.00 50 1027.3
20260505021002 67 17 2.0 3.0 0.00 0.00 0.00 51 1027.4
20260505020002 66 25 2.0 3.0 0.00 0.00 0.00 53 1027.4
20260505015002 65 72 2.0 3.0 0.00 0.00 0.00 55 1027.4
20260505014002 65 59 2.0 3.0 0.00 0.00 0.00 55 1027.4
20260505013023 65 43 2.0 3.0 0.00 0.00 0.00 55 1027.5
20260505012003 64 88 2.0 6.0 0.00 0.00 0.00 57 1027.5
20260505011024 64 98 2.0 6.0 0.00 0.00 0.00 58 1027.5
20260505010003 63 63 3.0 5.0 0.00 0.00 0.00 59 1027.6
20260505005002 62 82 2.0 5.0 0.00 0.00 0.00 60 1027.7
20260505004002 61 31 2.0 3.0 0.00 0.00 0.00 61 1027.6
20260505003002 60 56 3.0 7.0 0.00 0.00 0.00 62 1027.5
20260505002002 59 82 2.0 5.0 0.00 0.00 0.00 65 1027.4